GW1897 Weather Reports


time (UTC)temp
C
wind
direction
speed
KPH
gust
KPH
rain 1hr
cm
rain 24hr
cm
rain mn
cm
humidity
%
barometer
mb
20260505110818 11 258 0.0 0.0 0.00 0.00 0.00 86 1010.9
20260505110318 11 258 0.0 0.0 0.00 0.00 0.00 86 1010.8
20260505101814 11 255 0.0 0.0 0.00 0.00 0.00 83 1010.9
20260505101542 11 255 0.0 0.0 0.00 0.00 0.00 83 1010.9
20260505100809 11 255 0.0 0.0 0.00 0.00 0.00 82 1010.6
20260505100311 11 255 0.0 0.0 0.00 0.00 0.00 82 1010.5
20260505095809 11 255 0.0 0.0 0.00 0.00 0.00 82 1010.5
20260505095311 11 255 0.0 0.0 0.00 0.00 0.00 81 1010.4
20260505094810 11 255 0.0 0.0 0.00 0.00 0.00 81 1010.3
20260505094310 11 255 0.0 0.0 0.00 0.00 0.00 81 1010.4
20260505093810 11 255 0.0 0.0 0.00 0.00 0.00 81 1010.4
20260505093312 11 255 0.0 0.0 0.00 0.00 0.00 80 1010.4
20260505092804 11 255 0.0 0.0 0.00 0.00 0.00 81 1010.3
20260505092256 11 255 0.0 0.0 0.00 0.00 0.00 80 1010.1
20260505091750 11 255 0.0 0.0 0.00 0.00 0.00 80 1010.1
20260505091243 11 255 0.0 0.0 0.00 0.00 0.00 80 1010.1
20260505090738 11 255 0.0 0.0 0.00 0.00 0.00 80 1010.1
20260505090233 12 255 0.0 0.0 0.00 0.00 0.00 80 1010.0
20260505085726 12 255 0.0 0.0 0.00 0.00 0.00 80 1010.0
20260505085220 12 255 0.0 0.0 0.00 0.00 0.00 80 1010.0
20260505084715 11 255 0.0 0.0 0.00 0.00 0.00 80 1010.1
20260505084207 11 255 0.0 0.0 0.00 0.00 0.00 81 1010.0
20260505083702 11 255 0.0 0.0 0.00 0.00 0.00 81 1009.9
20260505083655 11 255 0.0 0.0 0.00 0.00 0.00 82 1010.1
20260505083257 11 255 0.0 0.0 0.00 0.00 0.00 81 1010.0
20260505082143 11 255 0.0 0.0 0.00 0.00 0.00 82 1010.1
20260505081638 11 255 0.0 0.0 0.00 0.00 0.00 82 1010.1
20260505081131 11 255 0.0 0.0 0.00 0.00 0.00 82 1010.0
20260505080626 11 255 0.0 0.0 0.00 0.00 0.00 82 1009.9
20260505080119 11 255 0.0 0.0 0.00 0.00 0.00 82 1010.3
20260505075614 11 255 0.0 0.0 0.00 0.00 0.00 82 1010.1
20260505075109 11 255 0.0 0.0 0.00 0.00 0.00 81 1010.3
20260505074600 11 255 0.0 0.0 0.00 0.00 0.00 81 1010.0
20260505074326 11 255 0.0 0.0 0.00 0.00 0.00 81 1009.9
20260505073547 11 255 0.0 0.0 0.00 0.00 0.00 80 1009.9
20260505073042 11 255 0.0 0.0 0.00 0.00 0.00 79 1010.0
20260505072807 11 255 0.0 0.0 0.00 0.00 0.00 79 1009.9
20260505072029 11 255 0.0 0.0 0.00 0.00 0.00 79 1009.8
20260505071524 11 255 0.0 0.0 0.00 0.00 0.00 78 1009.9
20260505071018 11 255 0.0 0.0 0.00 0.00 0.00 78 1009.8
20260505070511 11 255 0.0 0.0 0.00 0.00 0.00 78 1009.9
20260505070006 11 255 0.0 0.0 0.00 0.00 0.00 78 1009.8
20260505065459 11 255 0.0 0.0 0.00 0.00 0.00 77 1009.7
20260505064954 11 255 0.0 0.0 0.00 0.00 0.00 77 1009.5
20260505064448 11 225 0.0 0.0 0.00 0.00 0.00 77 1009.6
20260505063943 11 225 0.0 0.0 0.00 0.00 0.00 77 1009.5
20260505063937 11 225 0.0 0.0 0.00 0.00 0.00 76 1009.6
20260505062930 11 225 0.0 0.0 0.00 0.00 0.00 76 1009.6
20260505062423 12 225 0.0 0.0 0.00 0.00 0.00 75 1009.6
20260505061918 12 225 0.0 0.0 0.00 0.00 0.00 75 1009.7
20260505061412 12 225 0.0 1.6 0.00 0.00 0.00 75 1009.7
20260505060906 12 193 0.0 1.6 0.00 0.00 0.00 75 1009.6
20260505060400 12 136 0.0 0.0 0.00 0.00 0.00 74 1009.5
20260505055854 12 136 0.0 0.0 0.00 0.00 0.00 74 1009.7
20260505055348 12 136 0.0 0.0 0.00 0.00 0.00 73 1009.8
20260505054841 12 136 0.0 0.0 0.00 0.00 0.00 73 1009.8
20260505054335 13 136 0.0 0.0 0.00 0.00 0.00 72 1009.8
20260505054100 13 136 0.0 0.0 0.00 0.00 0.00 72 1009.8
20260505053323 13 136 0.0 0.0 0.00 0.00 0.00 71 1009.9
20260505052817 13 136 0.0 0.0 0.00 0.00 0.00 70 1009.9
20260505052312 13 136 0.0 0.0 0.00 0.00 0.00 70 1010.0
20260505051806 13 136 0.0 0.0 0.00 0.00 0.00 70 1010.0
20260505051532 13 136 0.0 0.0 0.00 0.00 0.00 70 1010.0
20260505050754 13 136 0.0 0.0 0.00 0.00 0.00 70 1009.9
20260505050248 13 136 0.0 0.0 0.00 0.00 0.00 69 1010.0
20260505041654 13 172 0.0 1.6 0.00 0.00 0.00 67 1009.9
20260505041152 13 144 0.0 1.6 0.00 0.00 0.00 67 1010.0
20260505040653 14 136 0.0 0.0 0.00 0.00 0.00 66 1010.1
20260505040152 14 129 0.0 1.6 0.00 0.00 0.00 65 1009.9
20260505035651 14 154 0.0 1.6 0.00 0.00 0.00 65 1010.0
20260505035422 14 154 0.0 1.6 0.00 0.00 0.00 64 1010.0
20260505034651 14 133 0.0 1.6 0.00 0.00 0.00 64 1010.1
20260505034151 14 134 0.0 3.2 0.00 0.00 0.00 64 1010.1
20260505033649 14 146 0.0 3.2 0.00 0.00 0.00 63 1010.1
20260505033147 14 138 0.0 0.0 0.00 0.00 0.00 62 1010.1
20260505032645 14 134 0.0 3.2 0.00 0.00 0.00 62 1010.0
20260505032417 15 134 0.0 3.2 0.00 0.00 0.00 61 1010.0
20260505031644 15 143 0.0 3.2 0.00 0.00 0.00 60 1010.3
20260505031145 15 143 0.0 3.2 0.00 0.00 0.00 60 1010.3
20260505030914 15 128 0.0 3.2 0.00 0.00 0.00 60 1010.3
20260505030144 15 171 0.0 3.2 0.00 0.00 0.00 59 1010.3
20260505025640 15 154 0.0 1.6 0.00 0.00 0.00 58 1010.4
20260505025411 15 154 0.0 1.6 0.00 0.00 0.00 57 1010.4
20260505024639 15 154 0.0 1.6 0.00 0.00 0.00 57 1010.5
20260505024139 15 154 0.0 4.8 0.00 0.00 0.00 56 1010.4
20260505023640 15 144 1.6 4.8 0.00 0.00 0.00 56 1010.5
20260505023410 15 146 1.6 4.8 0.00 0.00 0.00 55 1010.5
20260505022639 15 158 1.6 4.8 0.00 0.00 0.00 54 1010.5
20260505022141 16 134 1.6 4.8 0.00 0.00 0.00 53 1010.5
20260505021641 16 138 1.6 4.8 0.00 0.00 0.00 52 1010.6
20260505021140 16 163 1.6 6.4 0.00 0.00 0.00 51 1010.5
20260505020641 16 147 1.6 6.4 0.00 0.00 0.00 50 1010.7
20260505020411 16 117 1.6 6.4 0.00 0.00 0.00 50 1010.6
20260505015640 16 146 1.6 3.2 0.00 0.00 0.00 49 1010.6
20260505015139 16 130 1.6 6.4 0.00 0.00 0.00 49 1010.5
20260505014638 16 146 1.6 6.4 0.00 0.00 0.00 48 1010.6
20260505014138 16 157 1.6 3.2 0.00 0.00 0.00 48 1010.6
20260505013638 16 141 1.6 4.8 0.00 0.00 0.00 47 1010.6
20260505013139 16 150 1.6 4.8 0.00 0.00 0.00 47 1010.4
20260505012904 16 121 0.0 3.2 0.00 0.00 0.00 47 1010.4
20260505012126 16 132 0.0 3.2 0.00 0.00 0.00 46 1010.4
20260505011619 16 132 1.6 3.2 0.00 0.00 0.00 46 1010.4
20260505011115 17 132 1.6 3.2 0.00 0.00 0.00 45 1010.3
20260505010608 17 132 0.0 3.2 0.00 0.00 0.00 45 1010.0
20260505010333 17 150 0.0 1.6 0.00 0.00 0.00 45 1010.0
20260505005827 17 150 0.0 1.6 0.00 0.00 0.00 45 1009.9
20260505005050 17 150 0.0 1.6 0.00 0.00 0.00 44 1009.9
20260505004543 17 150 0.0 1.6 0.00 0.00 0.00 45 1009.9
20260505004038 17 150 0.0 1.6 0.00 0.00 0.00 44 1009.9
20260505003531 17 150 0.0 3.2 0.00 0.00 0.00 43 1009.8
20260505003026 17 150 0.0 3.2 0.00 0.00 0.00 43 1009.8
20260505002520 18 150 0.0 3.2 0.00 0.00 0.00 43 1009.7
20260505002013 18 150 0.0 3.2 0.00 0.00 0.00 43 1009.7
20260505001507 18 150 0.0 3.2 0.00 0.00 0.00 41 1009.7
20260505001002 18 150 1.6 4.8 0.00 0.00 0.00 42 1009.7
20260505000457 18 150 1.6 9.7 0.00 0.00 0.00 43 1009.5
20260504235950 18 165 1.6 9.7 0.00 0.00 0.00 42 1009.5
20260504235443 18 220 0.0 4.8 0.00 0.00 0.00 41 1009.4
20260504235210 18 167 1.6 4.8 0.00 0.00 0.00 40 1009.5
20260504234431 19 187 1.6 6.4 0.00 0.00 0.00 40 1009.5
20260504233926 19 187 1.6 6.4 0.00 0.00 0.00 40 1009.4
20260504233421 19 164 3.2 6.4 0.00 0.00 0.00 40 1009.2
20260504233146 19 175 3.2 12.9 0.00 0.00 0.00 39 1009.2
20260504232409 20 190 3.2 12.9 0.00 0.00 0.00 38 1009.1
20260504231902 20 184 3.2 6.4 0.00 0.00 0.00 37 1009.1
20260504231356 20 201 1.6 6.4 0.00 0.00 0.00 39 1009.0
20260504231351 20 152 3.2 11.3 0.00 0.00 0.00 38 1008.9
20260504230345 20 175 3.2 11.3 0.00 0.00 0.00 37 1009.0
20260504225838 21 194 3.2 16.1 0.00 0.00 0.00 38 1009.0
20260504225332 21 196 3.2 16.1 0.00 0.00 0.00 36 1009.0
20260504224826 21 186 3.2 11.3 0.00 0.00 0.00 36 1009.0
20260504224552 21 177 4.8 19.3 0.00 0.00 0.00 36 1009.0
20260504223814 21 167 4.8 19.3 0.00 0.00 0.00 35 1009.0
20260504223307 21 200 4.8 14.5 0.00 0.00 0.00 35 1009.1
20260504222801 21 213 3.2 9.7 0.00 0.00 0.00 35 1009.1
20260504222256 21 186 3.2 17.7 0.00 0.00 0.00 36 1009.0
20260504222021 21 209 4.8 17.7 0.00 0.00 0.00 35 1009.0
20260504221250 21 168 4.8 16.1 0.00 0.00 0.00 35 1008.9
20260504220749 21 175 4.8 16.1 0.00 0.00 0.00 35 1009.0
20260504220250 21 204 4.8 14.5 0.00 0.00 0.00 34 1009.0
20260504215750 21 150 4.8 17.7 0.00 0.00 0.00 35 1009.1
20260504215250 22 165 6.4 17.7 0.00 0.00 0.00 35 1009.1
20260504214750 22 240 4.8 17.7 0.00 0.00 0.00 34 1009.2
20260504214250 22 213 3.2 11.3 0.00 0.00 0.00 35 1009.3
20260504213756 22 217 3.2 12.9 0.00 0.00 0.00 35 1009.3
20260504213751 22 150 3.2 11.3 0.00 0.00 0.00 34 1009.3
20260504212749 22 187 4.8 16.1 0.00 0.00 0.00 33 1009.4
20260504212250 22 192 4.8 16.1 0.00 0.00 0.00 33 1009.3
20260504211748 22 152 4.8 9.7 0.00 0.00 0.00 34 1009.3
20260504211247 22 162 4.8 14.5 0.00 0.00 0.00 34 1009.3
20260504210747 22 186 4.8 14.5 0.00 0.00 0.00 33 1009.3
20260504210247 22 192 4.8 16.1 0.00 0.00 0.00 33 1009.5
20260504205748 22 198 6.4 16.1 0.00 0.00 0.00 35 1009.5
20260504205248 22 139 4.8 12.9 0.00 0.00 0.00 34 1009.5
20260504204743 22 182 4.8 12.9 0.00 0.00 0.00 32 1009.4
20260504204235 23 180 4.8 14.5 0.00 0.00 0.00 33 1009.4
20260504203730 23 139 4.8 22.5 0.00 0.00 0.00 34 1009.5
20260504203224 23 227 4.8 22.5 0.00 0.00 0.00 32 1009.4
20260504202719 23 193 6.4 25.7 0.00 0.00 0.00 34 1009.5
20260504202445 23 196 6.4 35.4 0.00 0.00 0.00 31 1009.6
20260504201705 23 215 8.0 35.4 0.00 0.00 0.00 31 1009.4
20260504201201 23 158 4.8 25.7 0.00 0.00 0.00 31 1009.5
20260504200924 23 200 3.2 14.5 0.00 0.00 0.00 33 1009.5
20260504200147 23 179 4.8 20.9 0.00 0.00 0.00 34 1009.5
20260504195640 23 150 6.4 20.9 0.00 0.00 0.00 32 1009.6
20260504195142 23 203 4.8 20.9 0.00 0.00 0.00 32 1009.5
20260504194641 23 188 3.2 14.5 0.00 0.00 0.00 31 1009.5
20260504194138 23 198 4.8 19.3 0.00 0.00 0.00 32 1009.5
20260504193640 23 159 4.8 19.3 0.00 0.00 0.00 32 1009.6
20260504193137 22 124 4.8 17.7 0.00 0.00 0.00 36 1009.7
20260504192908 22 181 6.4 17.7 0.00 0.00 0.00 31 1009.6
20260504192137 22 205 4.8 16.1 0.00 0.00 0.00 32 1009.7
20260504191637 22 246 6.4 19.3 0.00 0.00 0.00 35 1009.7
20260504191137 22 180 8.0 24.1 0.00 0.00 0.00 32 1009.8
20260504190637 22 256 8.0 24.1 0.00 0.00 0.00 31 1009.7
20260504190138 22 226 4.8 24.1 0.00 0.00 0.00 33 1009.9
20260504185633 22 182 4.8 11.3 0.00 0.00 0.00 32 1009.9
20260504185133 22 164 4.8 17.7 0.00 0.00 0.00 32 1010.0
20260504184905 22 194 4.8 17.7 0.00 0.00 0.00 33 1010.1
20260504184750 22 146 6.4 19.3 0.00 0.00 0.00 30 1010.3
20260504183634 22 165 6.4 19.3 0.00 0.00 0.00 34 1010.5
20260504183133 22 216 6.4 20.9 0.00 0.00 0.00 34 1010.6
20260504182632 22 211 6.4 20.9 0.00 0.00 0.00 33 1010.5
20260504182404 22 258 6.4 16.1 0.00 0.00 0.00 35 1010.7
20260504181634 22 228 6.4 17.7 0.00 0.00 0.00 34 1010.9
20260504181406 22 184 6.4 17.7 0.00 0.00 0.00 32 1010.9
20260504180633 22 213 6.4 17.7 0.00 0.00 0.00 33 1010.9
20260504180133 22 193 6.4 19.3 0.00 0.00 0.00 32 1010.9
20260504175632 22 157 6.4 19.3 0.00 0.00 0.00 34 1011.1
20260504175134 22 223 6.4 20.9 0.00 0.00 0.00 35 1011.3
20260504174632 22 225 6.4 20.9 0.00 0.00 0.00 33 1011.4
20260504174132 22 179 6.4 20.9 0.00 0.00 0.00 34 1011.3
20260504173632 22 231 6.4 20.9 0.00 0.00 0.00 32 1011.4
20260504173133 22 157 4.8 27.4 0.00 0.00 0.00 38 1011.3
20260504172633 22 162 4.8 27.4 0.00 0.00 0.00 32 1011.5
20260504172628 22 183 4.8 17.7 0.00 0.00 0.00 37 1011.5
20260504171627 22 249 6.4 20.9 0.00 0.00 0.00 34 1011.6
20260504171127 22 184 4.8 20.9 0.00 0.00 0.00 35 1011.7
20260504170628 22 138 4.8 11.3 0.00 0.00 0.00 37 1011.8
20260504170124 21 171 6.4 24.1 0.00 0.00 0.00 33 1011.8
20260504160120 21 178 4.8 16.1 0.00 0.00 0.00 38 1012.6
20260504151021 18 163 6.4 25.7 0.00 0.00 0.00 45 1013.1
20260504150516 17 202 4.8 25.7 0.00 0.00 0.00 45 1012.9
20260504140925 15 235 4.8 17.7 0.00 0.00 0.00 56 1013.2
20260504140423 14 177 6.4 20.9 0.00 0.00 0.00 56 1013.3
20260504130653 12 224 4.8 22.5 0.00 0.00 0.00 66 1013.7
20260504120109 7 206 0.0 8.0 0.00 0.00 0.00 89 1014.0